Weather History for KSUN - April, 2013

Change the Weather History Date:

Wednesday, April 10, 2013

  Actual Average Record
Temperature  
Mean Temperature 44 °F -  
Max Temperature 59 °F 51 °F 73 °F (2012)
Min Temperature 28 °F 28 °F 17 °F (1999)
Degree Days  
Heating Degree Days 22    
Moisture  
Dew Point 22 °F    
Average Humidity 53    
Maximum Humidity 66    
Minimum Humidity 35    
Precipitation  
Precipitation 0.00 in - - ()
Sea Level Pressure  
Sea Level Pressure 30.08 in    
Wind  
Wind Speed 7 mph (NW)    
Max Wind Speed 17 mph    
Max Gust Speed 21 mph    
Visibility 10 miles    
Events      
Averages and records for this station are not official NWS values.
T = Trace of Precipitation, MM = Missing Value Source: NWS Daily Summary

Daily Weather History Graph

Daily Weather History Graph

Search for Another Location

Airport or City:

Trip Planner

Search our weather history database for the weather conditions in past years. The results will help you decide how hot, cold, wet, or windy it might be!

Date:

Astronomy

Apr. 10, 2013 Rise Set
Actual Time 7:02 AM MDT 8:14 PM MDT
Civil Twilight 6:33 AM MDT 8:44 PM MDT
Nautical Twilight 5:57 AM MDT 9:19 PM MDT
Astronomical Twilight 5:20 AM MDT 9:57 PM MDT
Moon 6:59 AM MDT (4/10) 8:56 PM MDT (4/10)
Length of Visible Light 14h 11m
Length of Day
13h 12m
New Moon, 0% of the Moon is Illuminated
Apr 10
New Moon
Apr 18
First Quarter
Apr 25
Full
May 2
Last Quarter
May 9
New

Hourly Weather History & Observations

Time (MDT) Temp. Windchill Dew Point Humidity Pressure Visibility Wind Dir Wind Speed Gust Speed Precip Events Conditions
12:15 AM 33.8 °F 27.0 °F 19.4 °F 56% 30.16 in 10.0 mi WNW 8.1 mph - N/A   Clear
12:35 AM 32.0 °F 24.8 °F 17.6 °F 55% 30.16 in 10.0 mi WNW 8.1 mph - N/A   Clear
12:55 AM 32.0 °F 27.5 °F 17.6 °F 55% 30.15 in 10.0 mi NW 4.6 mph - N/A   Clear
1:15 AM 32.0 °F 24.8 °F 17.6 °F 55% 30.15 in 10.0 mi NNW 8.1 mph - N/A   Clear
1:35 AM 32.0 °F 25.6 °F 17.6 °F 55% 30.16 in 10.0 mi NW 6.9 mph - N/A   Clear
1:55 AM 32.0 °F 26.4 °F 17.6 °F 55% 30.16 in 10.0 mi NNW 5.8 mph - N/A   Clear
2:15 AM 32.0 °F 26.4 °F 17.6 °F 55% 30.16 in 10.0 mi NNW 5.8 mph - N/A   Clear
2:35 AM 32.0 °F 24.2 °F 17.6 °F 55% 30.16 in 10.0 mi NW 9.2 mph - N/A   Clear
2:55 AM 32.0 °F 28.7 °F 17.6 °F 55% 30.15 in 10.0 mi NNW 3.5 mph - N/A   Clear
3:15 AM 32.0 °F 26.4 °F 17.6 °F 55% 30.15 in 10.0 mi NW 5.8 mph - N/A   Clear
3:35 AM 32.0 °F 26.4 °F 15.8 °F 51% 30.15 in 10.0 mi NW 5.8 mph - N/A   Clear
3:55 AM 30.2 °F 22.6 °F 17.6 °F 60% 30.14 in 10.0 mi NW 8.1 mph - N/A   Clear
4:15 AM 32.0 °F 25.6 °F 15.8 °F 51% 30.14 in 10.0 mi WNW 6.9 mph - N/A   Clear
4:35 AM 30.2 °F 23.4 °F 17.6 °F 60% 30.14 in 10.0 mi NW 6.9 mph - N/A   Clear
4:55 AM 30.2 °F 23.4 °F 15.8 °F 55% 30.15 in 10.0 mi NW 6.9 mph - N/A   Clear
5:15 AM 30.2 °F 21.9 °F 15.8 °F 55% 30.15 in 10.0 mi NNW 9.2 mph - N/A   Clear
5:35 AM 30.2 °F 22.6 °F 15.8 °F 55% 30.15 in 10.0 mi NW 8.1 mph - N/A   Mostly Cloudy
5:55 AM 30.2 °F 24.3 °F 15.8 °F 55% 30.14 in 10.0 mi NW 5.8 mph - N/A   Overcast
6:15 AM 30.2 °F 23.4 °F 15.8 °F 55% 30.13 in 10.0 mi NW 6.9 mph - N/A   Overcast
6:35 AM 30.2 °F 23.4 °F 15.8 °F 55% 30.13 in 10.0 mi NNW 6.9 mph - N/A   Overcast
6:47 AM 30.2 °F 23.4 °F 15.8 °F 55% 30.13 in 10.0 mi NW 6.9 mph - N/A   Scattered Clouds
6:55 AM 30.2 °F 23.4 °F 15.8 °F 55% 30.13 in 10.0 mi NW 6.9 mph - N/A   Scattered Clouds
7:49 AM 28.4 °F 20.4 °F 15.8 °F 59% 30.14 in 10.0 mi WNW 8.1 mph - N/A   Scattered Clouds
8:50 AM 33.8 °F 27.7 °F 15.8 °F 48% 30.15 in 10.0 mi WNW 6.9 mph - N/A   Scattered Clouds
9:47 AM 37.4 °F - 15.8 °F 41% 30.13 in 10.0 mi Calm Calm - N/A   Scattered Clouds
11:47 AM 46.4 °F 39.5 °F 21.2 °F 37% 30.11 in 10.0 mi SE 17.3 mph - N/A   Scattered Clouds
12:47 PM 51.8 °F - 24.8 °F 35% 30.08 in 10.0 mi SE 15.0 mph - N/A   Scattered Clouds
1:47 PM 55.4 °F - 28.4 °F 36% 30.04 in 10.0 mi SE 11.5 mph - N/A   Mostly Cloudy
3:55 PM 53.6 °F - 32.0 °F 44% 30.00 in 10.0 mi ESE 5.8 mph - N/A   Overcast
5:50 PM 57.2 °F - 33.8 °F 41% 29.94 in 10.0 mi Calm Calm - N/A   Overcast
6:47 PM 59.0 °F - 33.8 °F 39% 29.93 in 10.0 mi West 9.2 mph 20.7 mph N/A   Overcast
7:50 PM 53.6 °F - 33.8 °F 47% 29.93 in 10.0 mi WNW 13.8 mph - N/A   Scattered Clouds
8:47 PM 51.8 °F - 33.8 °F 50% 29.93 in 10.0 mi WNW 5.8 mph - N/A   Scattered Clouds
9:47 PM 48.2 °F - 33.8 °F 58% 29.91 in 10.0 mi Calm Calm - N/A   Scattered Clouds
10:47 PM 48.2 °F - 35.6 °F 62% 29.91 in 10.0 mi Calm Calm - N/A   Scattered Clouds
11:15 PM 44.6 °F 39.7 °F 33.8 °F 66% 29.91 in 10.0 mi NNW 9.2 mph - N/A   Scattered Clouds
11:35 PM 46.4 °F 43.5 °F 33.8 °F 62% 29.90 in 10.0 mi NW 5.8 mph - N/A   Scattered Clouds
11:55 PM 44.6 °F 41.4 °F 33.8 °F 66% 29.90 in 10.0 mi NNW 5.8 mph - N/A   Clear